Volver al catálogo

UWE-1

ActivoRadioaficionadoSSO
NORAD 28892·PAYLOAD·🇩🇪 Germany

Lanzado Oct 27, 2005 desde Plesetsk Cosmodrome

Loading…

Próximos Pases (próximas 24 horas)

TLE

ActualizadoSource: Space-Track

Época: Sep 14, 2026, 08:51 UTC

1 28892U 05043C   26257.36938339  .00000918  00000-0  15359-3 0  9991
2 28892  98.3187  55.5263 0012502 289.2800  70.7054 14.72299342114880

Sigue UWE-1 en tiempo real con AllMySat

Download on the App Store